Flag for Germany Past Weather in Neustadt am Rübenberge, Lower Saxony, Germany — Yesterday and Last 2 Weeks

Now
27 °F

Passing clouds.


Feels Like: 27 °F
Forecast: 21 / 33 °F
Wind: 2 mph from Southeast

Location: Wunstorf Airport

Current Time: Dec 5, 2016 at 11:46:52 am

Latest Report: Dec 5, 2016 at 10:20 am


Visibility: N/A

Pressure: 30.33 "Hg

Humidity: 86%

Dew Point: 23 °F

Location of Neustadt am RübenbergeLocation

Past Weather in Neustadt am Rübenberge — Graph

°F

Neustadt am Rübenberge Temperature Yesterday

Maximum temperature yesterday: 37 °F (at 2:20 pm)
Minimum temperature yesterday: 19 °F (at 8:20 am)
Average temperature yesterday: 28 °F

High & Low Weather Summary for the Past Weeks

 TemperatureHumidityPressure
High59 °F (Nov 21, 10:20 am)100% (Nov 23, 7:20 pm)30.60 "Hg (Nov 23, 7:20 pm)
Low18 °F (Dec 5, 4:20 am)49% (Dec 2, 12:20 pm)29.33 "Hg (Nov 20, 3:20 pm)
Average39 °F84%30.15 "Hg
* Reported Nov 20 10:20 am — Dec 5 10:20 am, Neustadt am Rübenberge, Weather by CustomWeather, © 2016

Note: Actual official high and low records may vary slightly from our data, if they occured in-between our weather recording intervals... More about our weather records

Advertising

Neustadt am Rübenberge Weather History for the Previous 24 Hours

Scroll right to see more
 ConditionsComfort  
Time TempWeatherWind HumidityBarometerVisibility
10:20 am
Mon, Dec 5
27 °FPassing clouds.2 mph86%30.33 "HgN/A
9:20 am21 °FPassing clouds.1 mph86%30.33 "HgN/A
8:20 am18 °FPassing clouds.No wind93%30.33 "HgN/A
7:20 am21 °FCold.2 mph93%30.33 "HgN/A
6:20 am19 °FCold.3 mph86%30.33 "HgN/A
5:20 am21 °FCold.3 mph93%30.33 "HgN/A
4:20 am18 °FCold.2 mph93%30.33 "HgN/A
3:20 am21 °FCold.2 mph93%30.36 "HgN/A
2:20 am23 °FCold.2 mph93%30.36 "HgN/A
1:20 am25 °FCold.1 mph93%30.36 "HgN/A
12:20 am23 °FCold.1 mph93%30.39 "HgN/A
11:20 pm
Sun, Dec 4
27 °FChilly.3 mph86%30.39 "HgN/A
10:20 pm28 °FChilly.6 mph93%30.39 "HgN/A
9:20 pm30 °FChilly.6 mph93%30.39 "HgN/A
8:20 pm30 °FChilly.6 mph93%30.39 "HgN/A
7:20 pm32 °FChilly.5 mph87%30.39 "HgN/A
6:20 pm28 °FChilly.5 mph93%30.39 "HgN/A
5:20 pm30 °FChilly.5 mph86%30.39 "HgN/A
4:20 pm36 °FChilly.5 mph75%30.39 "HgN/A
3:20 pm36 °FChilly.6 mph75%30.39 "HgN/A
2:20 pm37 °FChilly.5 mph75%30.39 "HgN/A
1:20 pm36 °FChilly.6 mph81%30.39 "HgN/A
12:20 pm34 °FChilly.5 mph81%30.42 "HgN/A
11:20 am30 °FChilly.2 mph93%30.42 "HgN/A
Weather by CustomWeather, © 2016

See weather overviewHow to use our weather pages